RON92 ANYN-YBCS

Flight info

Callsign RON92
Flight time 3h 57m
Altitude 38000
Route MORNA A598 HN G342 CS
Aircraft B738/M-SDE2E3FGHIRWXY/LB1

Departure

Time 2026-04-27 05:51
Airport Nauru International Airport (ANYN)

Arrival

Time 2026-04-27 09:48
Airport Cairns International Airport (YBCS)
Time Latitude Longitude Altitude Speed Heading
2026-04-27 05:32 -0.54444 166.91698 31 ft 0 kts 186°
2026-04-27 05:45 -0.54453 166.91692 30 ft 5 kts 209°
2026-04-27 05:45 -0.54504 166.91654 31 ft 13 kts 211°
2026-04-27 05:45 -0.54580 166.91705 31 ft 14 kts 129°
2026-04-27 05:45 -0.54646 166.91784 29 ft 17 kts 130°
2026-04-27 05:46 -0.54729 166.91881 32 ft 20 kts 130°
2026-04-27 05:46 -0.54828 166.91998 32 ft 24 kts 130°
2026-04-27 05:46 -0.54944 166.92135 33 ft 27 kts 130°
2026-04-27 05:46 -0.55028 166.92234 32 ft 30 kts 130°
2026-04-27 05:47 -0.55167 166.92398 32 ft 32 kts 130°
2026-04-27 05:47 -0.55306 166.92563 31 ft 26 kts 127°
2026-04-27 05:47 -0.55357 166.92636 31 ft 10 kts 229°
2026-04-27 05:47 -0.55346 166.92610 29 ft 0 kts 309°
2026-04-27 05:50 -0.55334 166.92594 31 ft 9 kts 309°
2026-04-27 05:50 -0.55114 166.92336 31 ft 89 kts 310°
2026-04-27 05:51 -0.54551 166.91668 35 ft 159 kts 311°
2026-04-27 05:51 -0.53784 166.90749 631 ft 172 kts 312°
2026-04-27 05:51 -0.53093 166.89858 1902 ft 156 kts 310°
2026-04-27 05:51 -0.52426 166.88911 2483 ft 183 kts 300°
2026-04-27 05:52 -0.52176 166.87544 2672 ft 219 kts 267°
2026-04-27 05:52 -0.52784 166.86079 3138 ft 242 kts 237°
2026-04-27 05:52 -0.54103 166.84885 3422 ft 268 kts 219°
2026-04-27 05:52 -0.55661 166.83793 4009 ft 279 kts 217°
2026-04-27 05:53 -0.57282 166.82698 4826 ft 282 kts 216°
2026-04-27 05:53 -0.58915 166.81605 5695 ft 285 kts 216°
2026-04-27 05:53 -0.60574 166.80491 6471 ft 288 kts 216°
2026-04-27 05:53 -0.62253 166.79360 7191 ft 293 kts 215°
2026-04-27 05:54 -0.63931 166.78225 8031 ft 292 kts 214°
2026-04-27 05:54 -0.65621 166.77079 8804 ft 295 kts 214°
2026-04-27 05:54 -0.67326 166.75920 9555 ft 299 kts 213°
2026-04-27 05:54 -0.69052 166.74745 10234 ft 303 kts 212°
2026-04-27 05:55 -0.70847 166.73524 10530 ft 323 kts 213°
2026-04-27 05:55 -0.72765 166.72218 10700 ft 345 kts 213°
2026-04-27 05:55 -0.74796 166.70834 11038 ft 358 kts 212°
2026-04-27 05:55 -0.76874 166.69414 11571 ft 364 kts 213°
2026-04-27 05:56 -0.78968 166.67982 12247 ft 365 kts 212°
2026-04-27 05:56 -0.81069 166.66545 12938 ft 366 kts 213°
2026-04-27 05:56 -0.83152 166.65120 13558 ft 370 kts 212°
2026-04-27 05:56 -0.85289 166.63660 14081 ft 374 kts 212°
2026-04-27 05:57 -0.87446 166.62185 14623 ft 377 kts 213°
2026-04-27 05:57 -0.89616 166.60702 15175 ft 379 kts 212°
2026-04-27 05:57 -0.91801 166.59207 15710 ft 382 kts 212°
2026-04-27 05:57 -0.94001 166.57704 16239 ft 385 kts 212°
2026-04-27 05:58 -0.96216 166.56190 16761 ft 388 kts 213°
2026-04-27 05:58 -0.98461 166.54655 17279 ft 391 kts 212°
2026-04-27 05:58 -1.00702 166.53122 17794 ft 393 kts 213°
2026-04-27 05:58 -1.02970 166.51572 18279 ft 396 kts 213°
2026-04-27 05:59 -1.05250 166.50013 18726 ft 399 kts 213°
2026-04-27 05:59 -1.07547 166.48443 19173 ft 400 kts 213°
2026-04-27 05:59 -1.09856 166.46864 19595 ft 403 kts 213°
2026-04-27 05:59 -1.12175 166.45279 20008 ft 406 kts 213°
2026-04-27 06:00 -1.16868 166.42070 20813 ft 411 kts 213°
2026-04-27 06:00 -1.19239 166.40449 21221 ft 414 kts 213°
2026-04-27 06:00 -1.21618 166.38823 21643 ft 416 kts 213°
2026-04-27 06:01 -1.24011 166.37186 22017 ft 418 kts 213°
2026-04-27 06:01 -1.26415 166.35542 22590 ft 414 kts 213°
2026-04-27 06:01 -1.28749 166.33944 23546 ft 401 kts 213°
2026-04-27 06:01 -1.31009 166.32397 24396 ft 387 kts 213°
2026-04-27 06:02 -1.33196 166.30900 25206 ft 376 kts 213°
2026-04-27 06:02 -1.35347 166.29428 25733 ft 375 kts 213°
2026-04-27 06:02 -1.37513 166.27949 26034 ft 380 kts 213°
2026-04-27 06:02 -1.39713 166.26446 26353 ft 384 kts 213°
2026-04-27 06:03 -1.41914 166.24942 26811 ft 383 kts 213°
2026-04-27 06:03 -1.44112 166.23439 27326 ft 381 kts 213°
2026-04-27 06:03 -1.46296 166.21946 27787 ft 381 kts 213°
2026-04-27 06:03 -1.48484 166.20449 28201 ft 381 kts 213°
2026-04-27 06:04 -1.50680 166.18947 28501 ft 386 kts 213°
2026-04-27 06:04 -1.52934 166.17407 28576 ft 396 kts 213°
2026-04-27 06:04 -1.55230 166.15837 28764 ft 403 kts 213°
2026-04-27 06:04 -1.57553 166.14249 29087 ft 406 kts 213°
2026-04-27 06:05 -1.59886 166.12653 29487 ft 406 kts 213°
2026-04-27 06:05 -1.62218 166.11057 29859 ft 408 kts 213°
2026-04-27 06:05 -1.64532 166.09474 30119 ft 410 kts 213°
2026-04-27 06:05 -1.66889 166.07861 30379 ft 413 kts 214°
2026-04-27 06:06 -1.69261 166.06238 30632 ft 416 kts 213°
2026-04-27 06:06 -1.71682 166.04582 30653 ft 425 kts 213°
2026-04-27 06:06 -1.76638 166.01192 30796 ft 439 kts 213°
2026-04-27 06:07 -1.81609 165.97791 30889 ft 453 kts 214°
2026-04-27 06:07 -1.86880 165.94184 30997 ft 465 kts 214°
2026-04-27 06:08 -1.92279 165.90489 31121 ft 475 kts 214°
2026-04-27 06:08 -1.95007 165.88622 31291 ft 476 kts 214°
2026-04-27 06:08 -1.97748 165.86746 31545 ft 476 kts 214°
2026-04-27 06:09 -2.00463 165.84888 31828 ft 474 kts 214°
2026-04-27 06:09 -2.03188 165.83023 32100 ft 474 kts 214°
2026-04-27 06:09 -2.05906 165.81162 32293 ft 475 kts 214°
2026-04-27 06:09 -2.08603 165.79316 32538 ft 475 kts 214°
2026-04-27 06:10 -2.11327 165.77452 32779 ft 475 kts 214°
2026-04-27 06:10 -2.14070 165.75574 32906 ft 478 kts 214°
2026-04-27 06:10 -2.16820 165.73691 33148 ft 478 kts 214°
2026-04-27 06:10 -2.19566 165.71812 33390 ft 478 kts 214°
2026-04-27 06:11 -2.22300 165.69940 33766 ft 475 kts 215°
2026-04-27 06:11 -2.25028 165.68072 34010 ft 475 kts 215°
2026-04-27 06:11 -2.27761 165.66201 34202 ft 475 kts 215°
2026-04-27 06:11 -2.30488 165.64334 34442 ft 474 kts 215°
2026-04-27 06:12 -2.33209 165.62471 34712 ft 473 kts 215°
2026-04-27 06:12 -2.35923 165.60613 34956 ft 472 kts 215°
2026-04-27 06:12 -2.38631 165.58758 35181 ft 472 kts 215°
2026-04-27 06:12 -2.41343 165.56900 35391 ft 471 kts 215°
2026-04-27 06:13 -2.44017 165.55069 35608 ft 471 kts 216°
2026-04-27 06:13 -2.46717 165.53220 35834 ft 470 kts 216°
2026-04-27 06:13 -2.49414 165.51372 36048 ft 470 kts 216°
2026-04-27 06:13 -2.52110 165.49525 36245 ft 469 kts 216°
2026-04-27 06:14 -2.54800 165.47683 36454 ft 469 kts 216°
2026-04-27 06:14 -2.57490 165.45841 36665 ft 468 kts 216°
2026-04-27 06:14 -2.60183 165.43995 36858 ft 468 kts 216°
2026-04-27 06:14 -2.62872 165.42153 37010 ft 469 kts 216°
2026-04-27 06:15 -2.65566 165.40307 37182 ft 469 kts 216°
2026-04-27 06:15 -2.68256 165.38464 37393 ft 468 kts 216°
2026-04-27 06:15 -2.70938 165.36626 37611 ft 467 kts 216°
2026-04-27 06:15 -2.73621 165.34787 37789 ft 466 kts 216°
2026-04-27 06:16 -2.78977 165.31116 37846 ft 465 kts 216°
2026-04-27 06:16 -2.84275 165.27485 37853 ft 459 kts 216°
2026-04-27 06:17 -2.89486 165.23912 37863 ft 455 kts 216°
2026-04-27 06:17 -2.94696 165.20339 37867 ft 452 kts 216°
2026-04-27 06:18 -2.99879 165.16782 37862 ft 452 kts 217°
2026-04-27 06:18 -3.04905 165.12958 37874 ft 457 kts 220°
2026-04-27 06:19 -3.09901 165.08953 37872 ft 462 kts 220°
2026-04-27 06:19 -3.14956 165.04908 37863 ft 466 kts 220°
2026-04-27 06:20 -3.20015 165.00893 37857 ft 467 kts 220°
2026-04-27 06:20 -3.24884 164.97046 37847 ft 458 kts 220°
2026-04-27 06:21 -3.29860 164.93116 37871 ft 455 kts 220°
2026-04-27 06:21 -3.34822 164.89194 37858 ft 454 kts 220°
2026-04-27 06:22 -3.39786 164.85270 37865 ft 454 kts 220°
2026-04-27 06:22 -3.44750 164.81345 37868 ft 455 kts 220°
2026-04-27 06:23 -3.49440 164.77637 37869 ft 456 kts 220°
2026-04-27 06:23 -3.54426 164.73693 37862 ft 457 kts 220°
2026-04-27 06:24 -3.59429 164.69736 37862 ft 459 kts 220°
2026-04-27 06:24 -3.64451 164.65763 37866 ft 460 kts 220°
2026-04-27 06:25 -3.69480 164.61784 37853 ft 461 kts 220°
2026-04-27 06:25 -3.74384 164.57904 37868 ft 462 kts 220°
2026-04-27 06:26 -3.79432 164.53909 37862 ft 463 kts 220°
2026-04-27 06:26 -3.84490 164.49905 37865 ft 463 kts 220°
2026-04-27 06:27 -3.89549 164.45900 37864 ft 463 kts 220°
2026-04-27 06:27 -3.94594 164.41906 37865 ft 462 kts 220°
2026-04-27 06:28 -3.99601 164.37941 37861 ft 461 kts 220°
2026-04-27 06:28 -4.03789 164.34624 37871 ft 460 kts 220°
2026-04-27 06:29 -4.08799 164.30655 37857 ft 458 kts 220°
2026-04-27 06:29 -4.13764 164.26722 37863 ft 457 kts 220°
2026-04-27 06:30 -4.18749 164.22771 37866 ft 456 kts 220°
2026-04-27 06:30 -4.23726 164.18827 37868 ft 455 kts 220°
2026-04-27 06:31 -4.28689 164.14893 37872 ft 455 kts 220°
2026-04-27 06:31 -4.33654 164.10957 37872 ft 455 kts 220°
2026-04-27 06:32 -4.38615 164.07022 37868 ft 455 kts 220°
2026-04-27 06:32 -4.43584 164.03082 37876 ft 456 kts 220°
2026-04-27 06:33 -4.48403 163.99259 37868 ft 457 kts 220°
2026-04-27 06:33 -4.53388 163.95304 37873 ft 457 kts 220°
2026-04-27 06:34 -4.58380 163.91343 37872 ft 458 kts 220°
2026-04-27 06:34 -4.63381 163.87374 37872 ft 459 kts 220°
2026-04-27 06:35 -4.68389 163.83399 37871 ft 459 kts 220°
2026-04-27 06:35 -4.73404 163.79417 37867 ft 460 kts 220°
2026-04-27 06:36 -4.78419 163.75435 37881 ft 459 kts 220°
2026-04-27 06:36 -4.83432 163.71453 37864 ft 459 kts 220°
2026-04-27 06:37 -4.88402 163.67505 37870 ft 458 kts 220°
2026-04-27 06:37 -4.93384 163.63547 37872 ft 456 kts 220°
2026-04-27 06:38 -4.98380 163.59576 37866 ft 455 kts 220°
2026-04-27 06:38 -5.03294 163.55671 37872 ft 454 kts 220°
2026-04-27 06:39 -5.08231 163.51745 37863 ft 453 kts 220°
2026-04-27 06:39 -5.13163 163.47823 37861 ft 452 kts 219°
2026-04-27 06:40 -5.18086 163.43908 37871 ft 452 kts 219°
2026-04-27 06:40 -5.23014 163.39987 37876 ft 453 kts 219°
2026-04-27 06:41 -5.27968 163.36045 37888 ft 455 kts 219°
2026-04-27 06:41 -5.32949 163.32081 37877 ft 458 kts 219°
2026-04-27 06:42 -5.37954 163.28097 37888 ft 460 kts 220°
2026-04-27 06:42 -5.42984 163.24091 37866 ft 462 kts 220°
2026-04-27 06:43 -5.48018 163.20083 37866 ft 462 kts 220°
2026-04-27 06:43 -5.53050 163.16075 37871 ft 462 kts 220°
2026-04-27 06:44 -5.58079 163.12069 37866 ft 460 kts 220°
2026-04-27 06:44 -5.63087 163.08077 37867 ft 459 kts 220°
2026-04-27 06:45 -5.68039 163.04130 37867 ft 457 kts 220°
2026-04-27 06:45 -5.73039 163.00144 37870 ft 455 kts 220°
2026-04-27 06:46 -5.77825 162.96327 37865 ft 453 kts 220°
2026-04-27 06:46 -5.82760 162.92391 37868 ft 452 kts 219°
2026-04-27 06:47 -5.87636 162.88501 37868 ft 451 kts 219°
2026-04-27 06:47 -5.92542 162.84586 37867 ft 450 kts 219°
2026-04-27 06:48 -5.97435 162.80680 37868 ft 449 kts 219°
2026-04-27 06:48 -6.02310 162.76788 37873 ft 448 kts 219°
2026-04-27 06:49 -6.07193 162.72889 37868 ft 448 kts 219°
2026-04-27 06:49 -6.12074 162.68990 37871 ft 448 kts 219°
2026-04-27 06:50 -6.16954 162.65091 37872 ft 449 kts 219°
2026-04-27 06:50 -6.21819 162.61203 37865 ft 450 kts 219°
2026-04-27 06:51 -6.26721 162.57285 37868 ft 452 kts 219°
2026-04-27 06:51 -6.31660 162.53336 37875 ft 455 kts 219°
2026-04-27 06:52 -6.36630 162.49361 37879 ft 458 kts 219°
2026-04-27 06:52 -6.41636 162.45356 37881 ft 461 kts 219°
2026-04-27 06:53 -6.46670 162.41328 37879 ft 463 kts 219°
2026-04-27 06:53 -6.51730 162.37278 37872 ft 465 kts 219°
2026-04-27 06:54 -6.56798 162.33221 37873 ft 465 kts 220°
2026-04-27 06:54 -6.61855 162.29171 37866 ft 464 kts 220°
2026-04-27 06:55 -6.66897 162.25131 37862 ft 462 kts 220°
2026-04-27 06:55 -6.71916 162.21110 37863 ft 460 kts 220°
2026-04-27 06:56 -6.76889 162.17150 37862 ft 457 kts 220°
2026-04-27 06:56 -6.81874 162.13195 37868 ft 455 kts 220°
2026-04-27 06:57 -6.86836 162.09255 37866 ft 453 kts 220°
2026-04-27 06:57 -6.91779 162.05326 37868 ft 452 kts 220°
2026-04-27 06:58 -6.99029 161.99558 37876 ft 452 kts 220°
2026-04-27 06:59 -7.03989 161.95611 37877 ft 453 kts 220°
2026-04-27 06:59 -7.08946 161.91665 37873 ft 455 kts 220°
2026-04-27 07:00 -7.13920 161.87704 37872 ft 457 kts 220°
2026-04-27 07:00 -7.18879 161.83754 37877 ft 458 kts 220°
2026-04-27 07:01 -7.23889 161.79762 37877 ft 460 kts 220°
2026-04-27 07:01 -7.28917 161.75755 37869 ft 461 kts 220°
2026-04-27 07:02 -7.33947 161.71746 37870 ft 461 kts 220°
2026-04-27 07:02 -7.38980 161.67733 37870 ft 461 kts 220°
2026-04-27 07:03 -7.44009 161.63721 37872 ft 461 kts 220°
2026-04-27 07:03 -7.49031 161.59715 37872 ft 460 kts 220°
2026-04-27 07:04 -7.54042 161.55715 37872 ft 459 kts 220°
2026-04-27 07:04 -7.59036 161.51729 37859 ft 458 kts 220°
2026-04-27 07:05 -7.64025 161.47744 37867 ft 456 kts 220°
2026-04-27 07:05 -7.68992 161.43776 37872 ft 455 kts 220°
2026-04-27 07:06 -7.73950 161.39814 37874 ft 454 kts 220°
2026-04-27 07:06 -7.78900 161.35857 37868 ft 454 kts 220°
2026-04-27 07:07 -7.83851 161.31898 37874 ft 454 kts 220°
2026-04-27 07:07 -7.88800 161.27939 37873 ft 454 kts 220°
2026-04-27 07:08 -7.93751 161.23977 37892 ft 454 kts 220°
2026-04-27 07:08 -7.98702 161.20014 37867 ft 455 kts 220°
2026-04-27 07:09 -8.02815 161.16721 37868 ft 455 kts 220°
2026-04-27 07:09 -8.07771 161.12751 37871 ft 455 kts 220°
2026-04-27 07:10 -8.13564 161.08111 37872 ft 455 kts 220°
2026-04-27 07:10 -8.17682 161.04817 37870 ft 455 kts 220°
2026-04-27 07:11 -8.22641 161.00852 37874 ft 455 kts 220°
2026-04-27 07:11 -8.27451 160.97003 37878 ft 455 kts 220°
2026-04-27 07:12 -8.32404 160.93037 37870 ft 454 kts 220°
2026-04-27 07:12 -8.37353 160.89073 37873 ft 454 kts 220°
2026-04-27 07:13 -8.42306 160.85105 37873 ft 454 kts 220°
2026-04-27 07:13 -8.47253 160.81139 37893 ft 454 kts 220°
2026-04-27 07:14 -8.52204 160.77169 37882 ft 454 kts 220°
2026-04-27 07:14 -8.57156 160.73197 37879 ft 454 kts 220°
2026-04-27 07:15 -8.62102 160.69228 37888 ft 454 kts 220°
2026-04-27 07:15 -8.67055 160.65254 37878 ft 454 kts 220°
2026-04-27 07:16 -8.72006 160.61280 37885 ft 454 kts 220°
2026-04-27 07:16 -8.76949 160.57310 37878 ft 453 kts 220°
2026-04-27 07:17 -8.81885 160.53343 37881 ft 453 kts 220°
2026-04-27 07:17 -8.86818 160.49377 37878 ft 453 kts 220°
2026-04-27 07:18 -8.91743 160.45417 37880 ft 452 kts 220°
2026-04-27 07:18 -8.96670 160.41452 37875 ft 452 kts 221°
2026-04-27 07:19 -9.01588 160.37494 37880 ft 452 kts 221°
2026-04-27 07:19 -9.06481 160.33555 37877 ft 452 kts 221°
2026-04-27 07:20 -9.11407 160.29588 37881 ft 452 kts 221°
2026-04-27 07:20 -9.16333 160.25619 37874 ft 453 kts 221°
2026-04-27 07:21 -9.21256 160.21651 37869 ft 453 kts 221°
2026-04-27 07:21 -9.26190 160.17672 37872 ft 453 kts 221°
2026-04-27 07:22 -9.31122 160.13694 37866 ft 453 kts 221°
2026-04-27 07:22 -9.36057 160.09711 37856 ft 454 kts 221°
2026-04-27 07:23 -9.40991 160.05723 37856 ft 453 kts 223°
2026-04-27 07:23 -9.45129 160.01003 37858 ft 445 kts 242°
2026-04-27 07:24 -9.48063 159.95724 37860 ft 444 kts 244°
2026-04-27 07:24 -9.51058 159.90241 37869 ft 445 kts 244°
2026-04-27 07:25 -9.54081 159.84776 37874 ft 445 kts 244°
2026-04-27 07:25 -9.57124 159.79317 37889 ft 445 kts 244°
2026-04-27 07:26 -9.60166 159.73868 37893 ft 444 kts 244°
2026-04-27 07:26 -9.63206 159.68420 37886 ft 443 kts 244°
2026-04-27 07:27 -9.66215 159.63025 37869 ft 442 kts 244°
2026-04-27 07:27 -9.69228 159.57618 37874 ft 439 kts 244°
2026-04-27 07:28 -9.72248 159.52196 37875 ft 437 kts 244°
2026-04-27 07:28 -9.75208 159.46879 37874 ft 435 kts 244°
2026-04-27 07:29 -9.78175 159.41546 37877 ft 434 kts 244°
2026-04-27 07:29 -9.81137 159.36221 37880 ft 433 kts 244°
2026-04-27 07:30 -9.84088 159.30910 37878 ft 432 kts 244°
2026-04-27 07:30 -9.87038 159.25600 37878 ft 432 kts 244°
2026-04-27 07:31 -9.89994 159.20277 37889 ft 433 kts 244°
2026-04-27 07:31 -9.92956 159.14941 37887 ft 435 kts 245°
2026-04-27 07:32 -9.95927 159.09595 37880 ft 435 kts 245°
2026-04-27 07:32 -9.98901 159.04242 37879 ft 436 kts 245°
2026-04-27 07:33 -10.01779 158.99057 37876 ft 436 kts 245°
2026-04-27 07:33 -10.04754 158.93694 37880 ft 436 kts 245°
2026-04-27 07:34 -10.07725 158.88336 37884 ft 436 kts 245°
2026-04-27 07:34 -10.10699 158.82971 37880 ft 436 kts 245°
2026-04-27 07:35 -10.13666 158.77615 37883 ft 435 kts 245°
2026-04-27 07:35 -10.16629 158.72262 37885 ft 435 kts 245°
2026-04-27 07:36 -10.19591 158.66909 37884 ft 434 kts 245°
2026-04-27 07:36 -10.22547 158.61564 37885 ft 434 kts 245°
2026-04-27 07:37 -10.25499 158.56225 37884 ft 434 kts 245°
2026-04-27 07:37 -10.28447 158.50885 37887 ft 433 kts 245°
2026-04-27 07:38 -10.31394 158.45541 37884 ft 433 kts 245°
2026-04-27 07:38 -10.34333 158.40206 37884 ft 433 kts 245°
2026-04-27 07:39 -10.37276 158.34863 37884 ft 433 kts 245°
2026-04-27 07:39 -10.40217 158.29520 37885 ft 433 kts 245°
2026-04-27 07:40 -10.43156 158.24179 37887 ft 433 kts 245°
2026-04-27 07:40 -10.46096 158.18833 37892 ft 434 kts 245°
2026-04-27 07:41 -10.49039 158.13478 37887 ft 434 kts 245°
2026-04-27 07:41 -10.51981 158.08124 37891 ft 434 kts 245°
2026-04-27 07:42 -10.54925 158.02763 37882 ft 434 kts 245°
2026-04-27 07:42 -10.57774 157.97572 37884 ft 434 kts 245°
2026-04-27 07:43 -10.60717 157.92209 37886 ft 434 kts 245°
2026-04-27 07:43 -10.63653 157.86854 37887 ft 434 kts 245°
2026-04-27 07:44 -10.66593 157.81489 37889 ft 434 kts 245°
2026-04-27 07:44 -10.69506 157.76172 37888 ft 433 kts 245°
2026-04-27 07:45 -10.72441 157.70811 37887 ft 433 kts 245°
2026-04-27 07:45 -10.75366 157.65465 37886 ft 433 kts 245°
2026-04-27 07:46 -10.78293 157.60114 37885 ft 433 kts 245°
2026-04-27 07:46 -10.81216 157.54767 37883 ft 433 kts 245°
2026-04-27 07:47 -10.84141 157.49414 37893 ft 432 kts 245°
2026-04-27 07:47 -10.87060 157.44069 37884 ft 432 kts 245°
2026-04-27 07:48 -10.89502 157.39595 37891 ft 431 kts 245°
2026-04-27 07:48 -10.92882 157.33400 37893 ft 430 kts 245°
2026-04-27 07:49 -10.95783 157.28080 37891 ft 429 kts 245°
2026-04-27 07:49 -10.98673 157.22778 37894 ft 428 kts 245°
2026-04-27 07:50 -11.01556 157.17485 37891 ft 428 kts 245°
2026-04-27 07:50 -11.03972 157.13047 37890 ft 428 kts 245°
2026-04-27 07:51 -11.06851 157.07756 37896 ft 427 kts 245°
2026-04-27 07:51 -11.09730 157.02463 37893 ft 427 kts 245°
2026-04-27 07:52 -11.12523 156.97325 37902 ft 427 kts 246°
2026-04-27 07:52 -11.15402 156.92027 37896 ft 428 kts 246°
2026-04-27 07:53 -11.18282 156.86722 37895 ft 428 kts 246°
2026-04-27 07:53 -11.21165 156.81411 37890 ft 428 kts 246°
2026-04-27 07:54 -11.24048 156.76097 37903 ft 429 kts 246°
2026-04-27 07:54 -11.26914 156.70811 37892 ft 429 kts 246°
2026-04-27 07:55 -11.29795 156.65495 37903 ft 429 kts 246°
2026-04-27 07:55 -11.32679 156.60171 37900 ft 429 kts 246°
2026-04-27 07:56 -11.35559 156.54851 37897 ft 429 kts 246°
2026-04-27 07:56 -11.38439 156.49529 37898 ft 428 kts 246°
2026-04-27 07:57 -11.41313 156.44214 37911 ft 428 kts 246°
2026-04-27 07:57 -11.44186 156.38900 37895 ft 428 kts 246°
2026-04-27 07:58 -11.47052 156.33594 37899 ft 427 kts 246°
2026-04-27 07:58 -11.49910 156.28300 37909 ft 426 kts 246°
2026-04-27 07:59 -11.52762 156.23015 37896 ft 425 kts 246°
2026-04-27 07:59 -11.57030 156.15102 37900 ft 424 kts 246°
2026-04-27 08:00 -11.59872 156.09827 37902 ft 424 kts 246°
2026-04-27 08:00 -11.62709 156.04560 37908 ft 424 kts 246°
2026-04-27 08:01 -11.65461 155.99447 37908 ft 424 kts 246°
2026-04-27 08:01 -11.68298 155.94173 37911 ft 424 kts 246°
2026-04-27 08:02 -11.71140 155.88887 37888 ft 425 kts 246°
2026-04-27 08:02 -11.73988 155.83588 37904 ft 426 kts 246°
2026-04-27 08:03 -11.76844 155.78270 37901 ft 428 kts 246°
2026-04-27 08:03 -11.79716 155.72921 37910 ft 430 kts 246°
2026-04-27 08:04 -11.82594 155.67558 37903 ft 431 kts 246°
2026-04-27 08:04 -11.85479 155.62177 37909 ft 432 kts 246°
2026-04-27 08:05 -11.88370 155.56783 37896 ft 433 kts 246°
2026-04-27 08:05 -11.91263 155.51384 37911 ft 434 kts 246°
2026-04-27 08:06 -11.94161 155.45971 37908 ft 434 kts 246°
2026-04-27 08:06 -11.97055 155.40560 37917 ft 435 kts 246°
2026-04-27 08:07 -11.99956 155.35136 37903 ft 435 kts 246°
2026-04-27 08:07 -12.02842 155.29737 37904 ft 433 kts 246°
2026-04-27 08:08 -12.05708 155.24370 37905 ft 432 kts 246°
2026-04-27 08:08 -12.08580 155.18991 37918 ft 430 kts 246°
2026-04-27 08:09 -12.11439 155.13631 37914 ft 429 kts 246°
2026-04-27 08:09 -12.14291 155.08280 37904 ft 428 kts 246°
2026-04-27 08:10 -12.17131 155.02950 37906 ft 427 kts 246°
2026-04-27 08:10 -12.19882 154.97786 37915 ft 427 kts 246°
2026-04-27 08:11 -12.22724 154.92451 37919 ft 427 kts 246°
2026-04-27 08:11 -12.25566 154.87113 37921 ft 428 kts 246°
2026-04-27 08:12 -12.28413 154.81762 37923 ft 429 kts 247°
2026-04-27 08:12 -12.31267 154.76394 37913 ft 430 kts 247°
2026-04-27 08:13 -12.34127 154.71010 37917 ft 431 kts 247°
2026-04-27 08:13 -12.36993 154.65613 37914 ft 432 kts 247°
2026-04-27 08:14 -12.39863 154.60205 37916 ft 433 kts 247°
2026-04-27 08:14 -12.42736 154.54789 37915 ft 434 kts 247°
2026-04-27 08:15 -12.45614 154.49361 37929 ft 434 kts 247°
2026-04-27 08:15 -12.48497 154.43918 37923 ft 435 kts 247°
2026-04-27 08:16 -12.51378 154.38478 37915 ft 435 kts 247°
2026-04-27 08:16 -12.54241 154.33068 37932 ft 434 kts 247°
2026-04-27 08:17 -12.57115 154.27634 37920 ft 434 kts 247°
2026-04-27 08:17 -12.59983 154.22208 37922 ft 432 kts 247°
2026-04-27 08:18 -12.62839 154.16801 37919 ft 431 kts 247°
2026-04-27 08:18 -12.65681 154.11417 37922 ft 429 kts 247°
2026-04-27 08:19 -12.68511 154.06052 37925 ft 428 kts 248°
2026-04-27 08:19 -12.71335 154.00695 37924 ft 427 kts 248°
2026-04-27 08:20 -12.74062 153.95520 37927 ft 426 kts 248°
2026-04-27 08:20 -12.76873 153.90180 37927 ft 426 kts 248°
2026-04-27 08:21 -12.79684 153.84837 37929 ft 426 kts 248°
2026-04-27 08:21 -12.82496 153.79491 37940 ft 427 kts 248°
2026-04-27 08:22 -12.85314 153.74130 37927 ft 427 kts 248°
2026-04-27 08:22 -12.88134 153.68761 37928 ft 428 kts 248°
2026-04-27 08:23 -12.90937 153.63422 37929 ft 428 kts 248°
2026-04-27 08:23 -12.93760 153.58042 37929 ft 428 kts 248°
2026-04-27 08:24 -12.96584 153.52656 37931 ft 429 kts 248°
2026-04-27 08:24 -12.99406 153.47272 37931 ft 429 kts 248°
2026-04-27 08:25 -13.02225 153.41889 37924 ft 429 kts 248°
2026-04-27 08:25 -13.05045 153.36501 37936 ft 429 kts 248°
2026-04-27 08:26 -13.07865 153.31110 37936 ft 429 kts 248°
2026-04-27 08:26 -13.10680 153.25724 37937 ft 428 kts 248°
2026-04-27 08:27 -13.13497 153.20331 37938 ft 428 kts 248°
2026-04-27 08:27 -13.16306 153.14951 37938 ft 428 kts 248°
2026-04-27 08:28 -13.19119 153.09559 37936 ft 428 kts 248°
2026-04-27 08:28 -13.21929 153.04169 37937 ft 428 kts 248°
2026-04-27 08:29 -13.24183 152.99843 37938 ft 427 kts 248°
2026-04-27 08:29 -13.27437 152.93595 37936 ft 427 kts 248°
2026-04-27 08:30 -13.30233 152.88222 37938 ft 427 kts 248°
2026-04-27 08:30 -13.32578 152.83712 37936 ft 427 kts 248°
2026-04-27 08:31 -13.35830 152.77455 37945 ft 427 kts 248°
2026-04-27 08:31 -13.38625 152.72074 37937 ft 427 kts 248°
2026-04-27 08:32 -13.40963 152.67574 37935 ft 426 kts 248°
2026-04-27 08:32 -13.43757 152.62200 37937 ft 426 kts 248°
2026-04-27 08:33 -13.46544 152.56834 37941 ft 425 kts 248°
2026-04-27 08:33 -13.49321 152.51483 37943 ft 424 kts 248°
2026-04-27 08:34 -13.52098 152.46128 37938 ft 424 kts 248°
2026-04-27 08:34 -13.54849 152.40820 37940 ft 423 kts 248°
2026-04-27 08:35 -13.57634 152.35443 37944 ft 423 kts 248°
2026-04-27 08:35 -13.60374 152.30148 37945 ft 423 kts 248°
2026-04-27 08:36 -13.63152 152.24778 37948 ft 422 kts 249°
2026-04-27 08:36 -13.65909 152.19444 37947 ft 422 kts 249°
2026-04-27 08:37 -13.68663 152.14112 37950 ft 422 kts 249°
2026-04-27 08:37 -13.71396 152.08818 37950 ft 421 kts 249°
2026-04-27 08:38 -13.74161 152.03459 37951 ft 421 kts 249°
2026-04-27 08:38 -13.76798 151.98343 37950 ft 421 kts 249°
2026-04-27 08:39 -13.79544 151.93014 37949 ft 421 kts 249°
2026-04-27 08:39 -13.82282 151.87695 37958 ft 421 kts 249°
2026-04-27 08:40 -13.85024 151.82367 37963 ft 421 kts 249°
2026-04-27 08:40 -13.87761 151.77045 37979 ft 421 kts 249°
2026-04-27 08:41 -13.90500 151.71715 37963 ft 421 kts 249°
2026-04-27 08:41 -13.93234 151.66391 37958 ft 420 kts 249°
2026-04-27 08:42 -13.95964 151.61071 37954 ft 420 kts 249°
2026-04-27 08:42 -13.98685 151.55766 37961 ft 419 kts 249°
2026-04-27 08:43 -14.01398 151.50473 37961 ft 418 kts 249°
2026-04-27 08:43 -14.04109 151.45180 37963 ft 418 kts 249°
2026-04-27 08:44 -14.06818 151.39885 37965 ft 417 kts 249°
2026-04-27 08:44 -14.09525 151.34594 37964 ft 417 kts 249°
2026-04-27 08:45 -14.12225 151.29311 37991 ft 417 kts 249°
2026-04-27 08:45 -14.14926 151.24021 37968 ft 417 kts 249°
2026-04-27 08:46 -14.17623 151.18739 37960 ft 416 kts 249°
2026-04-27 08:46 -14.20308 151.13474 37963 ft 415 kts 249°
2026-04-27 08:47 -14.22982 151.08220 37967 ft 414 kts 249°
2026-04-27 08:47 -14.25651 151.02972 37962 ft 413 kts 249°
2026-04-27 08:48 -14.28236 150.97884 37966 ft 412 kts 249°
2026-04-27 08:48 -14.30889 150.92659 37967 ft 411 kts 249°
2026-04-27 08:49 -14.33541 150.87431 37964 ft 411 kts 249°
2026-04-27 08:49 -14.36194 150.82200 37965 ft 412 kts 250°
2026-04-27 08:50 -14.38848 150.76962 37975 ft 412 kts 250°
2026-04-27 08:50 -14.41501 150.71724 37968 ft 412 kts 250°
2026-04-27 08:51 -14.44155 150.66480 37971 ft 412 kts 250°
2026-04-27 08:51 -14.46794 150.61262 37972 ft 412 kts 250°
2026-04-27 08:52 -14.49445 150.56018 37975 ft 412 kts 250°
2026-04-27 08:52 -14.52114 150.50734 37969 ft 412 kts 250°
2026-04-27 08:53 -14.54760 150.45491 37966 ft 412 kts 250°
2026-04-27 08:53 -14.57388 150.40281 37970 ft 412 kts 250°
2026-04-27 08:54 -14.60050 150.35000 37969 ft 412 kts 250°
2026-04-27 08:54 -14.62694 150.29752 37975 ft 412 kts 250°
2026-04-27 08:55 -14.65313 150.24550 37974 ft 410 kts 250°
2026-04-27 08:55 -14.67945 150.19318 37972 ft 409 kts 250°
2026-04-27 08:56 -14.70563 150.14112 37978 ft 407 kts 250°
2026-04-27 08:56 -14.73167 150.08928 37974 ft 406 kts 250°
2026-04-27 08:57 -14.77051 150.01189 37977 ft 404 kts 250°
2026-04-27 08:58 -14.79550 149.96206 37977 ft 403 kts 250°
2026-04-27 08:58 -14.82124 149.91068 37977 ft 402 kts 250°
2026-04-27 08:59 -14.84690 149.85945 37981 ft 401 kts 250°
2026-04-27 08:59 -14.87256 149.80816 37982 ft 402 kts 250°
2026-04-27 09:00 -14.89826 149.75676 37981 ft 402 kts 250°
2026-04-27 09:00 -14.92397 149.70531 37978 ft 403 kts 250°
2026-04-27 09:01 -14.94971 149.65377 37985 ft 403 kts 250°
2026-04-27 09:01 -14.97546 149.60218 37982 ft 404 kts 250°
2026-04-27 09:02 -15.00118 149.55060 37982 ft 405 kts 250°
2026-04-27 09:02 -15.02703 149.49875 37984 ft 405 kts 250°
2026-04-27 09:03 -15.05289 149.44683 37982 ft 406 kts 250°
2026-04-27 09:03 -15.07871 149.39494 37986 ft 406 kts 250°
2026-04-27 09:04 -15.10441 149.34327 37996 ft 406 kts 250°
2026-04-27 09:04 -15.13040 149.29099 37987 ft 405 kts 250°
2026-04-27 09:05 -15.15594 149.23957 37984 ft 405 kts 250°
2026-04-27 09:05 -15.18185 149.18730 37997 ft 412 kts 250°
2026-04-27 09:06 -15.20817 149.13421 37986 ft 416 kts 250°
2026-04-27 09:06 -15.23471 149.08069 37990 ft 418 kts 250°
2026-04-27 09:07 -15.26130 149.02707 37982 ft 419 kts 250°
2026-04-27 09:07 -15.28703 148.97523 37980 ft 418 kts 250°
2026-04-27 09:08 -15.31351 148.92183 37979 ft 416 kts 250°
2026-04-27 09:08 -15.33985 148.86863 37994 ft 413 kts 250°
2026-04-27 09:09 -15.36597 148.81586 37976 ft 410 kts 250°
2026-04-27 09:09 -15.39187 148.76347 37975 ft 406 kts 250°
2026-04-27 09:10 -15.41739 148.71179 37990 ft 403 kts 250°
2026-04-27 09:10 -15.43872 148.66856 37981 ft 402 kts 250°
2026-04-27 09:11 -15.46415 148.61700 37994 ft 401 kts 250°
2026-04-27 09:11 -15.48935 148.56586 37997 ft 401 kts 250°
2026-04-27 09:12 -15.51475 148.51426 37994 ft 402 kts 250°
2026-04-27 09:12 -15.54021 148.46252 37994 ft 404 kts 250°
2026-04-27 09:13 -15.56585 148.41038 37996 ft 406 kts 250°
2026-04-27 09:13 -15.59035 148.36056 37993 ft 408 kts 250°
2026-04-27 09:14 -15.61613 148.30807 37996 ft 409 kts 250°
2026-04-27 09:14 -15.64199 148.25537 37998 ft 410 kts 250°
2026-04-27 09:15 -15.66789 148.20257 37998 ft 411 kts 250°
2026-04-27 09:15 -15.69377 148.14976 37987 ft 411 kts 250°
2026-04-27 09:16 -15.71948 148.09719 37989 ft 410 kts 250°
2026-04-27 09:16 -15.74525 148.04446 37997 ft 409 kts 250°
2026-04-27 09:17 -15.77009 147.99358 37989 ft 408 kts 250°
2026-04-27 09:17 -15.79568 147.94110 38006 ft 407 kts 251°
2026-04-27 09:18 -15.82116 147.88883 38001 ft 405 kts 251°
2026-04-27 09:18 -15.84655 147.83672 37997 ft 403 kts 251°
2026-04-27 09:19 -15.87181 147.78482 38003 ft 402 kts 251°
2026-04-27 09:19 -15.89694 147.73315 38003 ft 400 kts 251°
2026-04-27 09:20 -15.92137 147.68138 38002 ft 398 kts 252°
2026-04-27 09:20 -15.94480 147.62943 37991 ft 397 kts 252°
2026-04-27 09:20 -15.95659 147.60311 37496 ft 407 kts 252°
2026-04-27 09:21 -15.96859 147.57641 37060 ft 408 kts 252°
2026-04-27 09:21 -15.98064 147.54974 36604 ft 406 kts 252°
2026-04-27 09:21 -15.99262 147.52336 36234 ft 402 kts 252°
2026-04-27 09:21 -16.00448 147.49720 35908 ft 403 kts 252°
2026-04-27 09:22 -16.01642 147.47086 35560 ft 403 kts 252°
2026-04-27 09:22 -16.02824 147.44475 35219 ft 404 kts 251°
2026-04-27 09:22 -16.04022 147.41830 34879 ft 404 kts 251°
2026-04-27 09:22 -16.05219 147.39187 34531 ft 404 kts 251°
2026-04-27 09:23 -16.06415 147.36543 34207 ft 404 kts 251°
2026-04-27 09:23 -16.07610 147.33903 33850 ft 404 kts 251°
2026-04-27 09:23 -16.08804 147.31262 33465 ft 403 kts 251°
2026-04-27 09:23 -16.09998 147.28621 33089 ft 403 kts 251°
2026-04-27 09:24 -16.11190 147.25984 32720 ft 403 kts 251°
2026-04-27 09:24 -16.12386 147.23337 32352 ft 404 kts 250°
2026-04-27 09:24 -16.13581 147.20688 31995 ft 405 kts 250°
2026-04-27 09:24 -16.14781 147.18029 31636 ft 406 kts 250°
2026-04-27 09:25 -16.15982 147.15366 31289 ft 408 kts 250°
2026-04-27 09:25 -16.17169 147.12734 30902 ft 406 kts 250°
2026-04-27 09:25 -16.18381 147.10049 30431 ft 400 kts 249°
2026-04-27 09:25 -16.19541 147.07481 29965 ft 395 kts 249°
2026-04-27 09:26 -16.20698 147.04917 29426 ft 389 kts 249°
2026-04-27 09:26 -16.21842 147.02380 28928 ft 385 kts 249°
2026-04-27 09:26 -16.22942 146.99935 28425 ft 381 kts 249°
2026-04-27 09:26 -16.24022 146.97535 27935 ft 378 kts 249°
2026-04-27 09:27 -16.25133 146.95062 27438 ft 376 kts 249°
2026-04-27 09:27 -16.26238 146.92601 26949 ft 374 kts 248°
2026-04-27 09:27 -16.27326 146.90179 26469 ft 373 kts 248°
2026-04-27 09:27 -16.28426 146.87729 25999 ft 373 kts 248°
2026-04-27 09:28 -16.29523 146.85284 25541 ft 373 kts 248°
2026-04-27 09:28 -16.30623 146.82833 25093 ft 373 kts 247°
2026-04-27 09:28 -16.31721 146.80387 24690 ft 373 kts 247°
2026-04-27 09:28 -16.32821 146.77935 24292 ft 372 kts 246°
2026-04-27 09:29 -16.33914 146.75497 23894 ft 372 kts 246°
2026-04-27 09:29 -16.35011 146.73050 23493 ft 372 kts 246°
2026-04-27 09:29 -16.36104 146.70612 23028 ft 372 kts 246°
2026-04-27 09:29 -16.37196 146.68175 22551 ft 371 kts 246°
2026-04-27 09:30 -16.38286 146.65740 22105 ft 370 kts 246°
2026-04-27 09:30 -16.39372 146.63315 21658 ft 368 kts 246°
2026-04-27 09:30 -16.40452 146.60902 21214 ft 366 kts 246°
2026-04-27 09:30 -16.41512 146.58533 20782 ft 364 kts 246°
2026-04-27 09:31 -16.42577 146.56150 20354 ft 362 kts 246°
2026-04-27 09:31 -16.43637 146.53779 19941 ft 360 kts 246°
2026-04-27 09:31 -16.44692 146.51419 19519 ft 358 kts 246°
2026-04-27 09:31 -16.45740 146.49072 19112 ft 356 kts 246°
2026-04-27 09:32 -16.46783 146.46738 18706 ft 354 kts 246°
2026-04-27 09:32 -16.47820 146.44414 18305 ft 353 kts 246°
2026-04-27 09:32 -16.48852 146.42099 17835 ft 351 kts 246°
2026-04-27 09:32 -16.49878 146.39799 17383 ft 350 kts 246°
2026-04-27 09:33 -16.50900 146.37506 16962 ft 348 kts 246°
2026-04-27 09:33 -16.51905 146.35251 16546 ft 347 kts 246°
2026-04-27 09:33 -16.52918 146.32978 16128 ft 346 kts 245°
2026-04-27 09:33 -16.53929 146.30709 15720 ft 345 kts 245°
2026-04-27 09:34 -16.54936 146.28447 15322 ft 344 kts 245°
2026-04-27 09:34 -16.55940 146.26192 14926 ft 341 kts 245°
2026-04-27 09:34 -16.56932 146.23962 14531 ft 338 kts 245°
2026-04-27 09:34 -16.57917 146.21747 14138 ft 335 kts 245°
2026-04-27 09:35 -16.58893 146.19552 13753 ft 332 kts 245°
2026-04-27 09:35 -16.59862 146.17372 13323 ft 330 kts 245°
2026-04-27 09:35 -16.60820 146.15214 12898 ft 327 kts 244°
2026-04-27 09:35 -16.61764 146.13089 12475 ft 326 kts 244°
2026-04-27 09:36 -16.62714 146.10949 12061 ft 324 kts 244°
2026-04-27 09:36 -16.63658 146.08821 11651 ft 323 kts 243°
2026-04-27 09:36 -16.64601 146.06697 11246 ft 323 kts 243°
2026-04-27 09:36 -16.65548 146.04562 10851 ft 326 kts 243°
2026-04-27 09:37 -16.66505 146.02406 10453 ft 328 kts 243°
2026-04-27 09:37 -16.67450 146.00273 10073 ft 319 kts 243°
2026-04-27 09:37 -16.68320 145.98305 9690 ft 310 kts 242°
2026-04-27 09:37 -16.68899 145.96163 9248 ft 309 kts 264°
2026-04-27 09:38 -16.68547 145.93975 8860 ft 307 kts 290°
2026-04-27 09:38 -16.67420 145.92082 8473 ft 311 kts 310°
2026-04-27 09:38 -16.65962 145.90414 8102 ft 312 kts 312°
2026-04-27 09:38 -16.64492 145.88745 7713 ft 313 kts 312°
2026-04-27 09:39 -16.63126 145.86978 7316 ft 314 kts 297°
2026-04-27 09:39 -16.62384 145.84853 6955 ft 312 kts 284°
2026-04-27 09:39 -16.61766 145.82707 6581 ft 311 kts 286°
2026-04-27 09:39 -16.61120 145.80580 6177 ft 305 kts 287°
2026-04-27 09:40 -16.60480 145.78494 5767 ft 298 kts 284°
2026-04-27 09:40 -16.60290 145.76396 5407 ft 286 kts 259°
2026-04-27 09:40 -16.60610 145.74395 5153 ft 274 kts 258°
2026-04-27 09:40 -16.60904 145.72491 4923 ft 258 kts 257°
2026-04-27 09:41 -16.61174 145.70697 4678 ft 245 kts 258°
2026-04-27 09:41 -16.61431 145.68979 4433 ft 236 kts 258°
2026-04-27 09:41 -16.61681 145.67303 4183 ft 232 kts 257°
2026-04-27 09:41 -16.62122 145.65709 3914 ft 227 kts 232°
2026-04-27 09:42 -16.63325 145.64778 3799 ft 215 kts 189°
2026-04-27 09:42 -16.64765 145.64887 3769 ft 207 kts 162°
2026-04-27 09:42 -16.66083 145.65268 3736 ft 189 kts 161°
2026-04-27 09:42 -16.67295 145.65666 3729 ft 177 kts 158°
2026-04-27 09:43 -16.68422 145.66121 3729 ft 174 kts 155°
2026-04-27 09:43 -16.69558 145.66619 3535 ft 177 kts 155°
2026-04-27 09:43 -16.70685 145.67125 3330 ft 175 kts 155°
2026-04-27 09:43 -16.71786 145.67625 3102 ft 170 kts 154°
2026-04-27 09:44 -16.72859 145.68113 2887 ft 168 kts 154°
2026-04-27 09:44 -16.73935 145.68603 2667 ft 170 kts 155°
2026-04-27 09:44 -16.75005 145.69090 2478 ft 165 kts 156°
2026-04-27 09:44 -16.76055 145.69568 2244 ft 166 kts 156°
2026-04-27 09:45 -16.77117 145.70050 2017 ft 167 kts 155°
2026-04-27 09:45 -16.78191 145.70540 1795 ft 168 kts 155°
2026-04-27 09:45 -16.79219 145.71006 1566 ft 153 kts 155°
2026-04-27 09:45 -16.80146 145.71428 1362 ft 139 kts 156°
2026-04-27 09:46 -16.80999 145.71818 1199 ft 130 kts 157°
2026-04-27 09:46 -16.81796 145.72180 1037 ft 123 kts 158°
2026-04-27 09:46 -16.82572 145.72531 904 ft 122 kts 156°
2026-04-27 09:46 -16.83370 145.72893 791 ft 129 kts 156°
2026-04-27 09:47 -16.84208 145.73288 595 ft 131 kts 158°
2026-04-27 09:47 -16.85048 145.73652 396 ft 134 kts 157°
2026-04-27 09:47 -16.85916 145.74054 217 ft 134 kts 157°
2026-04-27 09:47 -16.86758 145.74432 16 ft 129 kts 157°
2026-04-27 09:48 -16.87503 145.74771 3 ft 101 kts 156°
2026-04-27 09:48 -16.88038 145.75014 16 ft 66 kts 156°
2026-04-27 09:48 -16.88341 145.75160 17 ft 26 kts 134°
2026-04-27 09:48 -16.88333 145.75282 16 ft 14 kts 65°
2026-04-27 09:49 -16.88281 145.75315 15 ft 5 kts 334°
2026-04-27 09:49 -16.88253 145.75301 15 ft 4 kts 335°
2026-04-27 09:49 -16.88227 145.75288 15 ft 4 kts 335°
2026-04-27 09:49 -16.88200 145.75276 15 ft 4 kts 337°
2026-04-27 09:50 -16.88186 145.75270 17 ft 2 kts 337°
2026-04-27 09:50 -16.88176 145.75265 15 ft 2 kts 337°
2026-04-27 09:50 -16.88166 145.75261 15 ft 1 kts 337°
2026-04-27 09:50 -16.88157 145.75257 15 ft 1 kts 337°
2026-04-27 09:51 -16.88148 145.75253 15 ft 2 kts 337°
2026-04-27 09:51 -16.88130 145.75245 15 ft 4 kts 337°
2026-04-27 09:51 -16.88097 145.75231 16 ft 7 kts 336°
2026-04-27 09:51 -16.88039 145.75204 15 ft 11 kts 337°
2026-04-27 09:52 -16.87952 145.75166 15 ft 15 kts 336°
2026-04-27 09:52 -16.87842 145.75116 16 ft 19 kts 336°
2026-04-27 09:52 -16.87712 145.75059 16 ft 17 kts 339°
2026-04-27 09:52 -16.87604 145.75014 16 ft 18 kts 338°
2026-04-27 09:53 -16.87477 145.74960 9 ft 21 kts 342°
2026-04-27 09:53 -16.87388 145.74985 1 ft 10 kts 24°
2026-04-27 09:53 -16.87321 145.75025 1 ft 10 kts 53°
2026-04-27 09:53 -16.87293 145.75089 1 ft 11 kts 67°
2026-04-27 09:54 -16.87262 145.75171 1 ft 11 kts 79°
2026-04-27 09:54 -16.87300 145.75203 1 ft 7 kts 155°
2026-04-27 09:54 -16.87331 145.75217 1 ft 2 kts 156°
2026-04-27 09:54 -16.87332 145.75218 1 ft 0 kts 156°